Orbital Elements at Epoch 2459200.5 (2020-Dec-17.0) TDB
Reference: JPL 36 (heliocentric ecliptic J2000)
Element | Value | Uncertainty (1-sigma) | Units |
e | .1534604571830469 | 3.0349e-08 | |
a | 2.306029713527797 | 6.6015e-09 | au |
q | 1.952145339412131 | 7.1076e-08 | au |
i | 4.137206692244604 | 3.597e-06 | deg |
node | 143.2313579669463 | 4.5622e-05 | deg |
peri | 89.12158262594934 | 4.7174e-05 | deg |
M | 261.4669782824059 | 1.3953e-05 | deg |
tp | 2459550.586267982674 (2021-Dec-02.08626798) | 5.0166e-05 | TDB |
period | 1279.074307037704 3.50 | 5.4924e-06 1.504e-08 | d yr |
n | .2814535465369082 | 1.2086e-09 | deg/d |
Q | 2.659914087643463 | 7.6146e-09 | au |
|
| | Orbit Determination Parameters
Additional Information
|